#timestamp,LO_Frequency,Hit 
1506164415.7,286046996.7,N
1506164435.6,286046993.7,N
1506164455.4,286046995.2,N
1506164475.2,286046995.3,N
1506164495.1,286046995.4,N
1506164496.0,286046995.4,N
1506164515.8,286046993.3,N
1506164535.6,286046997.9,N
1506164555.5,286046998.0,N
1506164575.3,286046996.2,N
1506164595.1,286046995.4,N
1506164615.9,286046990.7,N
1506164635.7,286046992.0,N
1506164655.5,286046990.5,N
1506164675.4,286046988.6,P
1506164695.2,286046994.5,N
1506164715.0,286046991.1,N
1506164715.9,286046991.1,N
1506164735.7,286046991.0,N
1506164755.6,286046994.2,N
1506164775.4,286046992.0,N
1506164795.2,286046994.4,N
1506164815.1,286046996.2,N
1506164816.0,286046996.2,N
1506164835.8,286046994.1,N
1506164855.6,286046994.7,N
1506164875.5,286046993.6,N
1506164895.3,286046993.4,N
1506164915.1,286046993.6,N
1506164935.9,286046996.4,N
1506164955.7,286046994.7,N
1506164975.5,286046993.9,N
1506164995.4,286046992.0,P
1506165015.2,286046996.5,P
1506165035.0,286046996.6,N
1506165035.9,286046996.6,N
1506165055.8,286046997.2,N
1506165075.6,286046999.6,N
1506165095.4,286046996.6,N
1506165115.3,286046995.7,N
1506165135.1,286046995.5,N
1506165136.0,286046995.5,N
1506165155.8,286046993.3,P
1506165175.7,286046996.2,N
1506165195.5,286046993.3,P
1506165215.3,286046994.4,P
1506165235.2,286046999.9,N
1506165255.9,286047002.8,N
1506165275.7,286047001.5,N
1506165295.6,286047005.9,N
1506165315.4,286047005.2,N
1506165335.2,286047004.8,N
1506165355.1,286047004.9,N
1506165356.0,286047004.9,N
1506165375.8,286047004.6,N
1506165395.6,286047004.7,N
1506165415.4,286047003.3,N
1506165435.3,286047001.8,N
1506165455.1,286047001.4,N
1506165475.8,286047002.6,N
1506165495.7,286047002.6,N
1506165515.5,286047000.8,N
1506165535.3,286047001.2,N
1506165555.2,286046998.6,N
1506165575.9,286047001.0,N
1506165595.7,286046998.3,N
1506165615.6,286046996.1,N
1506165635.4,286046997.4,N
1506165655.2,286046997.3,N
1506165675.0,286046995.0,N
1506165675.9,286046995.0,N
1506165695.8,286046995.4,N
1506165715.6,286046996.3,N
1506165735.4,286046995.8,N
1506165755.3,286046993.9,N
1506165775.1,286046995.2,N
1506165795.8,286046993.4,N
1506165815.7,286046995.9,N
1506165835.5,286046993.3,N
1506165855.3,286046990.9,N
1506165875.2,286046992.7,N
1506165895.9,286046988.8,N
1506165915.7,286046987.5,N
1506165935.6,286046989.4,N
1506165955.4,286046989.8,N
1506165975.2,286046989.4,N
1506165995.0,286046989.6,N
1506165995.9,286046989.6,N
1506166015.8,286046990.7,N
1506166035.6,286046990.8,N
1506166055.4,286046988.7,N
1506166075.3,286046990.4,N
1506166095.1,286046992.9,N
1506166115.8,286046991.2,N
1506166135.7,286046989.2,P
1506166155.5,286046996.2,N
1506166175.3,286046993.5,N
1506166195.2,286046991.8,P
1506166215.0,286046999.4,N
1506166215.9,286046999.4,N
1506166235.7,286046993.3,N
1506166255.6,286046995.7,N
1506166275.4,286046991.8,N
1506166295.2,286046993.9,N
1506166315.1,286046997.6,N
1506166316.0,286046997.6,N
1506166335.8,286046995.5,N
1506166355.6,286046993.7,N
1506166375.5,286046993.6,N
1506166395.3,286046995.9,N
1506166415.1,286046995.9,N
1506166435.9,286046991.9,P
1506166455.7,286046998.4,N
1506166475.5,286046999.8,N
1506166495.4,286047002.6,N
1506166515.2,286047001.6,N
1506166535.0,286047000.2,N
1506166535.9,286047000.2,N
1506166555.8,286046998.4,N
1506166575.6,286046999.6,N
1506166595.4,286046996.6,N
1506166615.3,286046999.1,N
1506166635.1,286046997.4,N
1506166636.0,286046997.4,N
1506166655.8,286046997.5,N
1506166675.6,286046996.2,N
1506166695.5,286046996.2,N
1506166715.3,286046993.7,N
1506166735.2,286046990.1,P
1506166755.9,286046992.5,N
1506166775.7,286046994.4,N
1506166795.5,286046993.8,N
1506166815.4,286046996.0,N
1506166835.2,286046992.7,N
1506166855.0,286046993.0,P
1506166856.0,286046993.0,P
1506166875.8,286046993.4,P
1506166895.6,286046992.6,P
1506166915.5,286047000.9,N
1506166935.3,286046998.5,N
1506166955.1,286046997.7,N
1506166975.9,286046993.4,N
1506166995.7,286046994.4,N
1506167015.5,286046993.0,N
1506167035.4,286046991.1,P
1506167055.2,286046995.5,N
1506167075.0,286046996.1,N
1506167075.9,286046996.1,N
1506167095.8,286046991.8,P
1506167115.6,286046998.3,N
1506167135.4,286046998.1,N
1506167155.3,286047002.7,N
1506167175.1,286047002.8,N
1506167176.0,286047002.8,N
1506167195.8,286047002.3,N
1506167215.7,286047001.5,N
1506167235.5,286046998.2,N
1506167255.3,286046999.6,N
1506167275.1,286046997.9,N
1506167295.9,286046996.9,N
1506167315.7,286046995.7,N
1506167335.5,286046993.9,N
1506167355.4,286046999.0,N
1506167375.2,286046997.4,N
1506167395.0,286046996.6,N
1506167395.9,286046996.6,N
1506167415.8,286047001.1,N
1506167435.6,286047001.0,N
1506167455.4,286046997.0,N
1506167475.3,286046999.0,N
1506167495.1,286046997.9,N
1506167496.0,286046997.9,N
1506167515.8,286046991.8,N
1506167535.7,286046993.2,N
1506167555.5,286046993.1,N
1506167575.3,286046987.8,P
1506167595.2,286046987.0,N
1506167615.9,286046990.6,N
1506167635.7,286046989.8,N
1506167655.6,286046989.1,N
1506167675.4,286046994.8,N
1506167695.2,286046993.6,N
1506167715.0,286046993.9,N
1506167715.9,286046993.9,N
1506167735.8,286046995.6,N
1506167755.6,286046996.2,N
1506167775.4,286046993.6,N
1506167795.3,286046993.9,N
1506167815.1,286046993.0,N
1506167835.8,286046994.3,N
1506167855.7,286046992.5,N
1506167875.5,286046992.2,N
1506167895.3,286046991.7,N
1506167915.2,286046993.6,N
1506167935.9,286046992.6,N
1506167955.7,286046988.2,P
1506167975.6,286046995.5,N
1506167995.4,286046995.8,N
